TimeEDT,TemperatureF,Dew PointF,Humidity,Sea Level PressureIn,VisibilityMPH,Wind Direction,Wind SpeedMPH,Gust SpeedMPH,PrecipitationIn,Events,Conditions,WindDirDegrees,DateUTC
12:15 AM,44.2,42.3,93,29.96,10.0,Calm,Calm,-,N/A,,Clear,0,2012-10-01 04:15:00
12:35 AM,44.1,42.4,94,29.96,10.0,Calm,Calm,-,N/A,,Clear,0,2012-10-01 04:35:00
12:54 AM,43.3,42.1,95,29.95,10.0,Calm,Calm,-,N/A,,Clear,0,2012-10-01 04:54:00
1:15 AM,42.1,41.0,96,29.95,10.0,Calm,Calm,-,N/A,,Clear,0,2012-10-01 05:15:00
1:35 AM,43.2,42.3,97,29.94,10.0,Calm,Calm,-,N/A,,Clear,0,2012-10-01 05:35:00
1:54 AM,42.8,41.9,97,29.94,1.5,Calm,Calm,-,N/A,,Mist,0,2012-10-01 05:54:00
2:15 AM,42.8,42.1,97,29.94,1.2,Calm,Calm,-,N/A,,Mist,0,2012-10-01 06:15:00
2:35 AM,41.0,40.3,97,29.94,10.0,Calm,Calm,-,N/A,,Clear,0,2012-10-01 06:35:00
2:54 AM,40.6,39.9,97,29.94,7.0,Calm,Calm,-,N/A,,Clear,0,2012-10-01 06:54:00
3:34 AM,41.0,40.3,97,29.93,10.0,Calm,Calm,-,N/A,,Clear,0,2012-10-01 07:34:00
3:55 AM,41.2,40.3,97,29.93,10.0,Calm,Calm,-,N/A,,Clear,0,2012-10-01 07:55:00
4:35 AM,40.8,40.1,97,29.93,10.0,Calm,Calm,-,N/A,,Clear,0,2012-10-01 08:35:00
4:55 AM,41.0,40.1,97,29.93,7.0,Calm,Calm,-,N/A,,Clear,0,2012-10-01 08:55:00
5:15 AM,41.2,40.3,97,29.93,10.0,Calm,Calm,-,N/A,,Clear,0,2012-10-01 09:15:00
5:34 AM,39.9,39.0,97,29.93,10.0,Calm,Calm,-,N/A,,Clear,0,2012-10-01 09:34:00
5:55 AM,41.0,40.3,97,29.93,5.0,Calm,Calm,-,N/A,,Clear,0,2012-10-01 09:55:00
6:14 AM,41.2,40.5,97,29.93,0.5,Calm,Calm,-,N/A,Fog,Fog,0,2012-10-01 10:14:00
6:34 AM,41.0,40.1,97,29.93,10.0,Calm,Calm,-,N/A,,Clear,0,2012-10-01 10:34:00
6:55 AM,40.3,39.6,97,29.93,10.0,Calm,Calm,-,N/A,,Clear,0,2012-10-01 10:55:00
7:14 AM,40.1,39.4,97,29.94,10.0,Calm,Calm,-,N/A,,Clear,0,2012-10-01 11:14:00
7:35 AM,39.9,39.2,97,29.93,10.0,Calm,Calm,-,N/A,,Clear,0,2012-10-01 11:35:00
7:55 AM,39.0,38.3,97,29.93,10.0,Calm,Calm,-,N/A,,Clear,0,2012-10-01 11:55:00
8:14 AM,40.5,39.9,98,29.94,5.0,Calm,Calm,-,N/A,,Clear,0,2012-10-01 12:14:00
8:34 AM,42.3,41.5,97,29.95,7.0,Calm,Calm,-,N/A,,Clear,0,2012-10-01 12:34:00
9:14 AM,49.3,48.9,99,29.94,10.0,Calm,Calm,-,N/A,,Clear,0,2012-10-01 13:14:00
9:34 AM,53.4,51.6,94,29.95,10.0,Calm,Calm,-,N/A,,Clear,0,2012-10-01 13:34:00
9:55 AM,55.9,51.8,86,29.95,10.0,SE,4.6,-,N/A,,Clear,130,2012-10-01 13:55:00
10:15 AM,56.5,51.6,84,29.95,10.0,SSE,4.6,-,N/A,,Clear,150,2012-10-01 14:15:00
10:34 AM,57.2,51.4,81,29.95,10.0,SSE,5.8,-,N/A,,Clear,160,2012-10-01 14:34:00
11:14 AM,59.4,48.4,67,29.94,10.0,East,3.5,-,N/A,,Clear,80,2012-10-01 15:14:00
11:35 AM,59.9,47.1,63,29.93,10.0,ENE,5.8,-,N/A,,Clear,70,2012-10-01 15:35:00
11:55 AM,60.1,45.1,58,29.93,10.0,East,6.9,-,N/A,,Scattered Clouds,80,2012-10-01 15:55:00
12:14 PM,61.3,45.0,55,29.92,10.0,East,8.1,-,N/A,,Clear,100,2012-10-01 16:14:00
12:35 PM,63.1,45.0,51,29.92,10.0,ENE,3.5,-,N/A,,Clear,70,2012-10-01 16:35:00
12:55 PM,63.1,44.6,51,29.91,10.0,East,8.1,-,N/A,,Clear,100,2012-10-01 16:55:00
1:14 PM,62.2,44.4,52,29.91,10.0,SE,9.2,-,N/A,,Clear,130,2012-10-01 17:14:00
1:35 PM,62.2,44.6,52,29.91,10.0,SE,4.6,-,N/A,,Clear,130,2012-10-01 17:35:00
2:14 PM,61.7,43.7,52,29.90,10.0,ESE,5.8,-,N/A,,Clear,110,2012-10-01 18:14:00
2:35 PM,62.1,44.8,53,29.87,10.0,NE,5.8,-,N/A,,Clear,50,2012-10-01 18:35:00
2:54 PM,63.1,44.6,51,29.88,10.0,East,5.8,-,N/A,,Clear,90,2012-10-01 18:54:00
3:15 PM,62.8,45.0,52,29.88,10.0,East,4.6,-,N/A,,Clear,90,2012-10-01 19:15:00
3:54 PM,63.3,45.0,51,29.87,10.0,SE,5.8,-,N/A,,Clear,130,2012-10-01 19:54:00
4:15 PM,63.1,45.3,52,29.87,10.0,SE,6.9,-,N/A,,Clear,130,2012-10-01 20:15:00
4:35 PM,63.0,45.3,53,29.86,10.0,East,4.6,-,N/A,,Clear,100,2012-10-01 20:35:00
4:54 PM,63.0,45.0,52,29.85,10.0,East,8.1,-,N/A,,Clear,80,2012-10-01 20:54:00
5:15 PM,62.1,45.0,53,29.85,10.0,ENE,4.6,-,N/A,,Clear,70,2012-10-01 21:15:00
5:35 PM,61.9,45.3,55,29.86,10.0,East,4.6,-,N/A,,Clear,80,2012-10-01 21:35:00
5:54 PM,61.3,44.2,53,29.86,10.0,East,6.9,-,N/A,,Clear,100,2012-10-01 21:54:00
6:15 PM,60.8,45.0,56,29.86,10.0,ESE,5.8,-,N/A,,Clear,110,2012-10-01 22:15:00
6:34 PM,59.7,45.1,59,29.86,10.0,East,4.6,-,N/A,,Clear,100,2012-10-01 22:34:00
6:55 PM,58.6,45.0,60,29.85,10.0,East,4.6,-,N/A,,Clear,100,2012-10-01 22:55:00
7:15 PM,57.9,45.1,62,29.86,10.0,ESE,3.5,-,N/A,,Clear,110,2012-10-01 23:15:00
7:34 PM,57.0,44.4,63,29.86,10.0,East,5.8,-,N/A,,Clear,100,2012-10-01 23:34:00
7:54 PM,56.7,44.6,64,29.85,10.0,East,5.8,-,N/A,,Clear,90,2012-10-01 23:54:00
8:15 PM,55.8,43.9,64,29.85,10.0,East,4.6,-,N/A,,Scattered Clouds,100,2012-10-02 00:15:00
8:35 PM,55.6,44.2,66,29.84,10.0,East,5.8,-,N/A,,Clear,80,2012-10-02 00:35:00
8:55 PM,55.8,44.8,67,29.85,10.0,East,5.8,-,N/A,,Clear,80,2012-10-02 00:55:00
9:15 PM,55.8,45.1,67,29.86,10.0,East,4.6,-,N/A,,Clear,90,2012-10-02 01:15:00
9:35 PM,55.8,45.7,69,29.86,10.0,ENE,4.6,-,N/A,,Clear,70,2012-10-02 01:35:00
9:55 PM,54.9,46.0,72,29.86,10.0,East,3.5,-,N/A,,Clear,90,2012-10-02 01:55:00
10:14 PM,54.9,45.9,72,29.86,10.0,Calm,Calm,-,N/A,,Clear,0,2012-10-02 02:14:00
10:35 PM,54.9,45.5,71,29.87,10.0,Calm,Calm,-,N/A,,Clear,0,2012-10-02 02:35:00
10:55 PM,54.9,45.9,72,29.86,10.0,Calm,Calm,-,N/A,,Clear,0,2012-10-02 02:55:00
11:15 PM,53.1,47.8,82,29.86,10.0,Calm,Calm,-,N/A,,Scattered Clouds,0,2012-10-02 03:15:00
11:35 PM,52.5,48.7,87,29.86,10.0,ENE,3.5,-,N/A,,Mostly Cloudy,70,2012-10-02 03:35:00
11:54 PM,54.3,47.5,78,29.85,10.0,NE,4.6,-,N/A,,Overcast,50,2012-10-02 03:54:00